Satellite: RS-38
Catalog number: 35869
Epoch time: 10168.73905205
Element set: 401
Inclination: 098.7567 deg
RA of node: 222.5664 deg
Eccentricity: 0.0004948
Arg of perigee: 014.7547 deg
Mean anomaly: 345.3746 deg
Mean motion: 14.21983510 rev/day
Decay rate: 1.77e-06 rev/day^2
Epoch rev: 3880
Checksum: 326
/EX
More information about the Keps
mailing list